FW1722 Weather Reports


time (UTC)temp
F
wind
direction
speed
knots
gust
knots
rain 1hr
in
rain 24hr
in
rain mn
in
humidity
%
barometer
mb
20260503033015 73 221 0.0 1.7 0.04 0.09 0.09 91 1015.5
20260503031514 74 214 0.0 1.7 0.02 0.07 0.07 91 1015.3
20260503030006 74 9 0.0 0.0 0.01 0.06 0.06 91 1014.8
20260503024508 74 334 0.0 1.7 0.00 0.05 0.05 90 1015.1
20260503021512 73 152 0.0 2.6 0.00 0.05 0.05 90 1014.7
20260503020004 73 158 0.0 1.7 0.00 0.05 0.05 90 1015.0
20260503014516 73 138 0.0 0.0 0.00 0.05 0.05 89 1014.9
20260503013016 73 138 0.0 0.0 0.00 0.05 0.05 90 1014.6
20260503011513 73 57 0.0 0.0 0.00 0.05 0.05 90 1014.4
20260503010010 72 13 0.0 0.0 0.00 0.05 0.05 90 1014.5
20260503004518 72 13 0.0 0.0 0.00 0.05 0.05 90 1014.6
20260503003011 72 346 0.0 0.0 0.05 0.05 0.05 90 1014.7
20260503001515 72 311 0.0 3.5 0.05 0.05 0.05 89 1014.5
20260503000003 72 320 0.9 4.3 0.05 0.05 0.05 88 1014.2
20260502234520 73 352 0.9 9.6 0.05 0.05 0.05 84 1014.0
20260502233014 79 196 6.1 13.0 0.00 0.00 0.00 84 1014.0
20260502230024 80 301 2.6 7.8 0.00 0.00 0.00 83 1013.3
20260502221509 82 281 3.5 7.8 0.00 0.00 0.00 81 1012.8
20260502220012 81 246 1.7 7.0 0.00 0.00 0.00 80 1012.7
20260502211519 83 327 2.6 7.8 0.00 0.00 0.00 75 1012.4
20260502204518 85 310 2.6 8.7 0.00 0.00 0.00 72 1012.3
20260502200012 86 268 1.7 8.7 0.00 0.00 0.00 70 1012.0
20260502190019 85 248 2.6 11.3 0.00 0.00 0.00 65 1012.9
20260502184520 86 278 3.5 9.6 0.00 0.00 0.00 68 1012.9
20260502183020 85 269 3.5 10.4 0.00 0.00 0.00 68 1013.1
20260502181525 86 279 5.2 9.6 0.00 0.00 0.00 71 1013.1
20260502163031 85 321 0.9 7.0 0.00 0.00 0.00 76 1013.5
20260502161521 84 254 3.5 9.6 0.00 0.00 0.00 77 1013.5
20260502151504 84 274 2.6 7.8 0.00 0.00 0.00 76 1013.3
20260502123029 76 237 0.0 0.0 0.00 0.00 0.00 89 1012.5
20260502121531 74 167 0.0 0.0 0.00 0.00 0.00 90 1012.5
20260502114504 72 156 0.0 0.0 0.00 0.00 0.00 91 1012.4
20260502113028 72 138 0.0 0.0 0.00 0.00 0.00 91 1012.4
20260502111510 72 130 0.0 0.0 0.00 0.00 0.00 91 1012.5
20260502110020 71 129 0.0 0.0 0.00 0.00 0.00 90 1012.3
20260502104527 71 137 0.0 0.0 0.00 0.00 0.00 90 1012.3
20260502103008 71 148 0.0 0.0 0.00 0.00 0.00 90 1012.2
20260502101513 71 137 0.0 0.0 0.00 0.00 0.00 90 1012.4
20260502091508 71 108 0.0 0.0 0.00 0.00 0.00 90 1012.6
20260502071525 70 140 0.0 1.7 0.00 0.00 0.00 91 1013.0
20260502070013 70 128 0.0 0.0 0.00 0.00 0.00 91 1013.1
20260502064503 70 148 0.9 4.3 0.00 0.00 0.00 91 1013.0
20260502063004 71 150 0.0 0.0 0.00 0.00 0.00 91 1012.8
20260502061506 71 259 0.0 0.0 0.00 0.00 0.00 91 1012.9
20260502060025 72 259 0.0 0.0 0.00 0.00 0.00 91 1012.9
20260502050008 71 259 0.0 0.0 0.00 0.00 0.00 89 1013.0
20260502044511 72 259 0.0 0.0 0.00 0.00 0.00 89 1012.9
20260502043019 72 259 0.0 0.0 0.00 0.00 0.00 89 1013.1